Cross City, FL

5:28 PM EST on November 22, 2017 (GMT -0500)
Cross City

Weather History for KCTY - March, 2013

Change the Weather History Date:

Friday, March 29, 2013

  Actual Average Record
Temperature  
Mean Temperature 56 °F 64 °F  
Max Temperature 76 °F 78 °F 88 °F (2007)
Min Temperature 36 °F 51 °F 36 °F (2013)
Degree Days  
Heating Degree Days 9 3  
Month to date heating degree days 275 130  
Since 1 July heating degree days 1085 1250  
Cooling Degree Days 0 2  
Month to date cooling degree days 22 40  
Year to date cooling degree days 118 67  
Growing Degree Days 6 (Base 50)    
Moisture  
Dew Point 39 °F    
Average Humidity 61    
Maximum Humidity 92    
Minimum Humidity 21    
Precipitation  
Precipitation 0.00 in 0.13 in 1.17 in (2001)
Month to date precipitation 1.20 3.96  
Year to date precipitation 4.71 11.27  
Sea Level Pressure  
Sea Level Pressure 30.28 in    
Wind  
Wind Speed 3 mph (WNW)    
Max Wind Speed 14 mph    
Max Gust Speed 18 mph    
T = Trace of Precipitation, MM = Missing Value Source: NWS Daily Summary

Daily Weather History Graph

Daily Weather History Graph

Search for Another Location

Airport or City:

Trip Planner

Search our weather history database for the weather conditions in past years. The results will help you decide how hot, cold, wet, or windy it might be!

Date:

Astronomy

Mar. 29, 2013 Rise Set
Actual Time 7:25 AM EDT 7:49 PM EDT
Civil Twilight 7:01 AM EDT 8:13 PM EDT
Nautical Twilight 6:33 AM EDT 8:41 PM EDT
Astronomical Twilight 6:04 AM EDT 9:09 PM EDT
Moon 10:32 PM EDT (3/29) 8:46 AM EDT (3/29)
Length of Visible Light 13h 11m
Length of Day
12h 24m
Waning Gibbous, 93% of the Moon is Illuminated
Mar 29
Waning Gibbous
Apr 3
Last Quarter
Apr 10
New
Apr 18
First Quarter
Apr 25
Full

Hourly Weather History & Observations

Time (EDT) Temp. Dew Point Humidity Pressure Visibility Wind Dir Wind Speed Gust Speed Precip Events Conditions
12:53 AM 45.0 °F 41.0 °F 86% 30.31 in - Calm Calm - N/A   Unknown
1:53 AM 41.0 °F 37.9 °F 89% 30.30 in - Calm Calm - N/A   Unknown
2:53 AM 39.9 °F 37.0 °F 89% 30.30 in - Calm Calm - N/A   Unknown
3:53 AM 39.0 °F 36.0 °F 89% 30.30 in - Calm Calm - N/A   Unknown
4:53 AM 37.9 °F 34.0 °F 86% 30.29 in - Calm Calm - N/A   Unknown
5:53 AM 37.0 °F 33.1 °F 86% 30.30 in - Calm Calm - N/A   Unknown
6:53 AM 36.0 °F 32.0 °F 86% 30.31 in - Calm Calm - N/A   Unknown
7:53 AM 36.0 °F 33.1 °F 89% 30.32 in - Calm Calm - N/A   Unknown
8:53 AM 46.9 °F 43.0 °F 86% 30.33 in - Calm Calm - N/A   Unknown
9:53 AM 57.9 °F 43.0 °F 58% 30.35 in - NNE 4.6 mph - N/A   Unknown
10:53 AM 64.9 °F 39.0 °F 39% 30.35 in - ENE 4.6 mph - N/A   Unknown
11:53 AM 69.1 °F 36.0 °F 30% 30.34 in - ESE 4.6 mph - N/A   Unknown
12:53 PM 71.1 °F 34.0 °F 26% 30.32 in - NNE 4.6 mph - N/A   Unknown
1:53 PM 72.0 °F 34.0 °F 25% 30.30 in - Calm Calm - N/A   Unknown
2:53 PM 75.0 °F 34.0 °F 22% 30.26 in - Calm Calm - N/A   Unknown
3:53 PM 75.0 °F 41.0 °F 29% 30.23 in - WSW 11.5 mph 16.1 mph N/A   Unknown
4:53 PM 73.0 °F 39.9 °F 30% 30.21 in - WSW 11.5 mph 18.4 mph N/A   Unknown
5:53 PM 71.1 °F 39.9 °F 32% 30.22 in - WSW 11.5 mph - N/A   Unknown
6:53 PM 66.9 °F 39.0 °F 36% 30.23 in - WSW 8.1 mph - N/A   Unknown
7:53 PM 62.1 °F 44.1 °F 52% 30.23 in - West 6.9 mph - N/A   Unknown
8:53 PM 57.9 °F 46.9 °F 67% 30.24 in - WNW 4.6 mph - N/A   Unknown
9:53 PM 55.0 °F 46.9 °F 74% 30.25 in - Calm Calm - N/A   Unknown
10:53 PM 50.0 °F 46.0 °F 86% 30.26 in - Calm Calm - N/A   Unknown
11:53 PM 48.0 °F 43.0 °F 83% 30.26 in - Calm Calm - N/A   Unknown